Le nostre stazioni meteo in Italia

Pubblicità
Il mio iltempo24.it
Foggia Amendola, Italia (16261): Temperatura & dewpoint: 11.02.2019 13:00:00 - 17.02.2019 13:00:00 (CET)Foggia Amendola, Italia (16261): velocità del vento: 11.02.2019 13:00:00 - 17.02.2019 13:00:00 (CET)Foggia Amendola, Italia (16261): direzione del vento: 11.02.2019 13:00:00 - 17.02.2019 13:00:00 (CET)Foggia Amendola, Italia (16261): reduced air pressure: 11.02.2019 13:00:00 - 17.02.2019 13:00:00 (CET)Foggia Amendola, Italia (16261): visibility: 11.02.2019 13:00:00 - 17.02.2019 13:00:00 (CET)Foggia Amendola, Italia (16261): ore di luce: 11.02.2019 13:00:00 - 17.02.2019 13:00:00 (CET)
Data & Tempo tt [°C] td [°C] ff [km/h] ff [kn] dd ppp [hPa] vv [km] sd [min]
17.02.2019 13:00:00 - - - - - - - -
17.02.2019 12:00:00 - - - - - - - -
17.02.2019 11:00:00 - - - - - - - -
17.02.2019 10:00:00 - - - - - - - -
17.02.2019 09:00:00 - - - - - - - -
17.02.2019 08:00:00 - - - - - - - -
17.02.2019 07:00:00 - - - - - - - -
17.02.2019 06:00:00 - - - - - - - -
17.02.2019 05:00:00 - - - - - - - -
17.02.2019 04:00:00 - - - - - - - -
17.02.2019 03:00:00 - - - - - - - -
17.02.2019 02:00:00 - - - - - - - -
17.02.2019 01:00:00 - - - - - - - -
17.02.2019 00:00:00 - - - - - - - -
16.02.2019 23:00:00 - - - - - - - -
16.02.2019 22:00:00 - - - - - - - -
16.02.2019 21:00:00 - - - - - - - -
16.02.2019 20:00:00 - - - - - - - -
16.02.2019 19:00:00 - - - - - - - -
16.02.2019 18:00:00 - - - - - - - -
16.02.2019 17:00:00 - - - - - - - -
16.02.2019 16:00:00 - - - - - - - -
16.02.2019 15:00:00 - - - - - - - -
16.02.2019 14:00:00 - - - - - - - -
16.02.2019 13:00:00 - - - - - - - -
16.02.2019 12:00:00 - - - - - - - -
16.02.2019 11:00:00 - - - - - - - -
16.02.2019 10:00:00 - - - - - - - -
16.02.2019 09:00:00 - - - - - - - -
16.02.2019 08:00:00 - - - - - - - -
16.02.2019 07:00:00 - - - - - - - -
16.02.2019 06:00:00 - - - - - - - -
16.02.2019 05:00:00 - - - - - - - -
16.02.2019 04:00:00 - - - - - - - -
16.02.2019 03:00:00 - - - - - - - -
16.02.2019 02:00:00 - - - - - - - -
16.02.2019 01:00:00 - - - - - - - -
16.02.2019 00:00:00 - - - - - - - -
15.02.2019 23:00:00 - - - - - - - -
15.02.2019 22:00:00 - - - - - - - -
15.02.2019 21:00:00 - - - - - - - -
15.02.2019 20:00:00 - - - - - - - -
15.02.2019 19:00:00 12,2 8,1 11 6 N 1027,6 12 0
15.02.2019 18:00:00 9,0 3,0 11 6 N - 10 -
15.02.2019 17:00:00 11,0 4,0 15 8 N - 10 -
15.02.2019 16:00:00 11,8 9,9 16 9 N 1026,1 15 24
15.02.2019 15:00:00 11,0 4,0 26 14 N - 8 -
15.02.2019 14:00:00 12,0 3,0 26 14 N - 6 -
15.02.2019 13:00:00 11,8 8,1 16 9 NNO 1026,9 6 0
15.02.2019 12:00:00 11,0 7,0 26 14 NO - 7 -
15.02.2019 11:00:00 9,0 6,0 15 8 O - 4,0 -
15.02.2019 10:00:00 8,4 5,3 24 13 ONO 1028,2 4,0 0
15.02.2019 09:00:00 8,0 6,0 24 13 O - 4,0 -
15.02.2019 08:00:00 6,0 5,0 13 7 O - 5 -
15.02.2019 07:00:00 6,0 4,5 13 7 OSO 1028,6 8 -
15.02.2019 06:00:00 6,0 4,0 15 8 O - 10 -
15.02.2019 05:00:00 6,0 5,0 16 9 O - 10 -
15.02.2019 04:00:00 - - - - - - - -
15.02.2019 03:00:00 - - - - - - - -
15.02.2019 02:00:00 - - - - - - - -
15.02.2019 01:00:00 - - - - - - - -
15.02.2019 00:00:00 - - - - - - - -
14.02.2019 23:00:00 - - - - - - - -
14.02.2019 22:00:00 - - - - - - - -
14.02.2019 21:00:00 - - - - - - - -
14.02.2019 20:00:00 - - - - - - - -
14.02.2019 19:00:00 9,4 6,1 11 6 ONO 1029,9 15 -
14.02.2019 18:00:00 10,0 6,0 16 9 O - 10 -
14.02.2019 17:00:00 11,0 5,0 21 11 NNO - 10 -
14.02.2019 16:00:00 12,0 6,9 22 12 O 1029,9 15 48
14.02.2019 15:00:00 11,0 7,0 26 14 O - 10 -
14.02.2019 14:00:00 11,0 7,0 39 21 ONO - 10 -
14.02.2019 13:00:00 12,6 7,3 41 22 ONO 1031,1 10 60
14.02.2019 12:00:00 12,0 8,0 37 20 NO - 10 -
14.02.2019 11:00:00 12,0 7,0 29 16 NO - 10 -
14.02.2019 10:00:00 11,0 6,9 29 16 NO 1031,6 20 60
14.02.2019 09:00:00 10,0 5,0 21 11 ONO - 10 -
14.02.2019 08:00:00 8,0 3,0 22 12 NO - 10 -
14.02.2019 07:00:00 3,6 2,1 16 9 NO 1031,7 12 0
14.02.2019 06:00:00 4,0 3,0 8 4 NO - 10 -
14.02.2019 05:00:00 4,0 1,0 9 5 ONO - 10 -
14.02.2019 04:00:00 4,4 0,4 11 6 ONO 1032,1 12 0
14.02.2019 03:00:00 5,0 0,0 11 6 NNO - 10 -
14.02.2019 02:00:00 4,0 -4,0 5 3 NO - 10 -
14.02.2019 01:00:00 5,8 -4,9 13 7 N 1033,2 12 0
14.02.2019 00:00:00 6,0 -5,0 11 6 N - 10 -
13.02.2019 23:00:00 7,0 -3,0 22 12 N - 10 -
13.02.2019 22:00:00 - - - - - - - -
13.02.2019 21:00:00 - - - - - - - -
13.02.2019 20:00:00 - - - - - - - -
13.02.2019 19:00:00 7,0 -4,1 31 17 N 1031,7 40 -
13.02.2019 18:00:00 7,0 -4,0 41 22 NNO - 10 -
13.02.2019 17:00:00 8,0 -5,0 35 19 NNO - 10 -
13.02.2019 16:00:00 8,2 -3,6 31 17 NNO 1031,1 30 24
13.02.2019 15:00:00 8,0 -5,0 24 13 NNO - 10 -
13.02.2019 14:00:00 10,0 -5,0 29 16 N - 10 -
13.02.2019 13:00:00 9,2 -6,2 39 21 N 1031,6 40 60
13.02.2019 12:00:00 9,0 -5,0 35 19 N - 10 -
13.02.2019 11:00:00 9,0 -6,0 24 13 N - 10 -
13.02.2019 10:00:00 8,0 -6,9 11 6 NNE 1031,5 50 60
13.02.2019 09:00:00 7,0 -5,0 9 5 NO - 10 -
13.02.2019 08:00:00 6,0 -7,0 31 17 N - 10 -
13.02.2019 07:00:00 5,6 -7,9 35 19 NNO 1029,3 10 -
13.02.2019 06:00:00 6,0 -5,0 31 17 NNO - 10 -
13.02.2019 05:00:00 6,0 -5,0 24 13 NNO - 10 -
13.02.2019 04:00:00 - - - - - - - -
13.02.2019 03:00:00 - - - - - - - -
13.02.2019 02:00:00 - - - - - - - -
13.02.2019 01:00:00 - - - - - - - -
13.02.2019 00:00:00 - - - - - - - -
12.02.2019 23:00:00 - - - - - - - -
12.02.2019 22:00:00 - - - - - - - -
12.02.2019 21:00:00 - - - - - - - -
12.02.2019 20:00:00 - - - - - - - -
12.02.2019 19:00:00 7,0 -3,8 18 10 N 1025,4 12 0
12.02.2019 18:00:00 7,0 -4,0 15 8 N - 10 -
12.02.2019 17:00:00 9,0 -4,0 16 9 NNO - 10 -
12.02.2019 16:00:00 10,0 -4,0 21 11 N 1022,6 25 60
12.02.2019 15:00:00 10,0 -5,0 29 16 N - 10 -
12.02.2019 14:00:00 10,0 -4,0 39 21 N - 10 -
12.02.2019 13:00:00 10,0 -4,4 37 20 N 1021,1 35 60
12.02.2019 12:00:00 10,0 -3,0 34 18 N - 10 -
12.02.2019 11:00:00 10,0 -2,0 29 16 N - 10 -
12.02.2019 10:00:00 9,2 -2,7 24 13 N 1020,3 35 60
12.02.2019 09:00:00 9,0 -2,0 29 16 N - 10 -
12.02.2019 08:00:00 8,0 -1,0 24 13 N - 10 -
12.02.2019 07:00:00 8,0 -1,3 26 14 N 1017,8 30 -
12.02.2019 06:00:00 7,0 -2,0 22 12 NNO - 10 -
12.02.2019 05:00:00 7,0 -2,0 28 15 N - 10 -
12.02.2019 04:00:00 - - - - - - - -
12.02.2019 03:00:00 - - - - - - - -
12.02.2019 02:00:00 - - - - - - - -
12.02.2019 01:00:00 - - - - - - - -
12.02.2019 00:00:00 - - - - - - - -
11.02.2019 23:00:00 - - - - - - - -
11.02.2019 22:00:00 - - - - - - - -
11.02.2019 21:00:00 - - - - - - - -
11.02.2019 20:00:00 - - - - - - - -
11.02.2019 19:00:00 7,0 7,0 29 16 O 1009,5 6 -
11.02.2019 18:00:00 7,0 6,0 21 11 O - 7 -
11.02.2019 17:00:00 7,0 6,0 13 7 OSO - 7 -
11.02.2019 16:00:00 7,4 7,2 18 10 ONO 1008,7 5 0
11.02.2019 15:00:00 9,0 9,0 18 10 ONO - 5 -
11.02.2019 14:00:00 9,0 9,0 13 7 O - 8 -
11.02.2019 13:00:00 12,0 9,0 26 14 ONO 1006,1 10 12

tt = Temperatura
td = dewpoint
ff = velocità del vento
dd = direzione del vento
ppp = reduced air pressure
vv = visibility
sd = ore di luce

Stazioni seguenti

WeatherPro
AMSI
MeteoEarth